Location: Unspecified
(38.9820°N, 0.0000°E)
Time: 17:48:38
(UTC+00:00)

Envisat - Visible Passes

Search period start: 21 May 2019 00:00
Search period end: 31 May 2019 00:00
Orbit: 764 x 766 km, 98.2° (Epoch: 21 May)

Date Brightness Start Highest point End Pass type
(mag) Time Alt. Az. Time Alt. Az. Time Alt. Az.
21 May 5.8 19:53:21 10° WSW 19:56:00 14° W 19:58:41 10° WNW visible
24 May 5.6 19:41:12 10° SW 19:44:40 18° W 19:48:08 10° NW visible
29 May 5.9 19:56:53 10° WSW 19:59:06 13° W 20:01:21 10° WNW visible
